Location: Unspecified
(0.0000°N, 0.0000°E)
Time: 05:49:35
(UTC+00:00)

Courier 1B Rocket - All Passes

Search period start: 28 May 2015 00:00
Search period end: 07 June 2015 00:00
Orbit: 920 x 1202 km, 28.3° (Epoch: 26 May)

Date Brightness Start Highest point End Pass type
(mag) Time Alt. Az. Time Alt. Az. Time Alt. Az.
28 May - 04:09:55 10° SSW 04:14:01 17° SSE 04:18:28 10° ESE visible
28 May - 06:01:13 10° SW 06:07:53 62° SSE 06:15:06 10° ENE daylight
28 May - 07:55:05 10° W 08:01:41 40° NNW 08:08:40 10° NE daylight
28 May - 09:52:38 10° NW 09:56:24 14° NNW 09:59:59 10° N daylight
28 May - 15:39:36 10° NNW 15:44:11 17° NNE 15:48:50 10° ENE daylight
28 May - 17:31:28 10° NW 17:38:37 52° NNE 17:45:17 10° ESE daylight
28 May - 19:25:33 10° WNW 19:32:16 46° SSW 19:38:32 10° SE visible
28 May - 21:23:23 10° SW 21:26:18 13° SSW 21:28:55 10° S visible
29 May - 03:11:00 10° S 03:12:39 11° SSE 03:14:37 10° SE visible
29 May - 05:00:42 10° SW 05:06:47 40° SSE 05:13:21 10° E visible
29 May - 06:53:41 10° WSW 07:00:26 59° NNW 07:07:41 10° NE daylight
29 May - 08:49:43 10° WNW 08:54:45 19° NNW 08:59:48 10° NNE daylight
29 May - 14:39:38 10° N 14:42:31 12° NNE 14:45:37 10° NE daylight
29 May - 16:30:34 10° NW 16:37:20 36° NNE 16:43:47 10° E daylight
29 May - 18:23:54 10° WNW 18:31:11 71° SSW 18:37:56 10° SE visible
29 May - 20:20:05 10° WSW 20:24:59 20° SSW 20:29:31 10° SSE visible
30 May - 04:00:27 10° SSW 04:05:40 26° SSE 04:11:14 10° E visible
30 May - 05:52:37 10° WSW 05:59:18 87° NNW 06:06:31 10° ENE daylight
30 May - 07:47:27 10° W 07:53:16 27° NNW 07:59:17 10° NNE daylight
30 May - 15:29:52 10° NNW 15:35:54 25° NNE 15:41:51 10° ENE daylight
30 May - 17:22:31 10° NW 17:30:02 79° NNE 17:37:03 10° ESE daylight
30 May - 19:17:35 10° W 19:23:46 30° SSW 19:29:30 10° SSE visible
31 May - 03:00:34 10° SSW 03:04:28 17° SSE 03:08:38 10° ESE visible
31 May - 04:51:50 10° SW 04:58:15 63° SSE 05:05:07 10° ENE visible
31 May - 06:45:42 10° W 06:51:56 38° NNW 06:58:33 10° NE daylight
31 May - 08:43:25 10° NW 08:46:35 13° NNW 08:49:36 10° N daylight
31 May - 14:29:23 10° NNW 14:34:21 18° NNE 14:39:24 10° ENE daylight
31 May - 16:21:22 10° NW 16:28:49 54° NNE 16:35:51 10° ESE daylight
31 May - 18:15:32 10° WNW 18:22:35 46° SSW 18:29:08 10° SE visible
31 May - 20:13:26 10° SW 20:16:43 13° SSW 20:19:39 10° S visible
01 Jun - 02:01:44 10° S 02:03:09 11° SSE 02:04:49 10° SE visible
01 Jun - 03:51:20 10° SW 03:57:13 40° SSE 04:03:27 10° E visible
01 Jun - 05:44:19 10° WSW 05:50:45 56° NNW 05:57:38 10° NE daylight
01 Jun - 07:40:26 10° WNW 07:45:00 18° NNW 07:49:33 10° NNE daylight
01 Jun - 13:29:21 10° N 13:32:39 13° NNE 13:36:10 10° NE daylight
01 Jun - 15:20:26 10° NW 15:27:28 38° NNE 15:34:17 10° E daylight
01 Jun - 17:13:50 10° WNW 17:21:25 70° SSW 17:28:29 10° SE daylight
01 Jun - 19:10:07 10° WSW 19:15:20 21° SSW 19:20:10 10° SSE visible
02 Jun - 02:51:04 10° SSW 02:56:08 26° SSE 03:01:28 10° E visible
02 Jun - 04:43:16 10° WSW 04:49:41 84° NNW 04:56:33 10° ENE visible
02 Jun - 06:38:10 10° WNW 06:43:34 25° NNW 06:49:07 10° NNE daylight
02 Jun - 14:19:44 10° NNW 14:26:01 27° NNE 14:32:18 10° E daylight
02 Jun - 16:12:25 10° WNW 16:20:12 81° NNE 16:27:32 10° ESE daylight
02 Jun - 18:07:34 10° W 18:14:02 31° SSW 18:20:04 10° SSE daylight
03 Jun - 01:51:08 10° SSW 01:54:58 17° SSE 01:59:00 10° ESE visible
03 Jun - 03:42:28 10° SW 03:48:42 64° SSE 03:55:16 10° ENE visible
03 Jun - 05:36:25 10° W 05:42:18 35° NNW 05:48:30 10° NE daylight
03 Jun - 07:34:32 10° NW 07:36:52 12° NNW 07:39:01 10° N daylight
03 Jun - 13:19:18 10° NNW 13:24:27 19° NNE 13:29:46 10° ENE daylight
03 Jun - 15:11:16 10° NW 15:18:55 56° NNE 15:26:16 10° ESE daylight
03 Jun - 17:05:29 10° WNW 17:12:47 46° SSW 17:19:38 10° SE daylight
03 Jun - 19:03:21 10° SW 19:07:03 14° SSW 19:10:24 10° S visible
04 Jun - 00:52:06 10° S 00:53:39 11° SSE 00:55:26 10° SE night (unlit)
04 Jun - 02:41:55 10° SW 02:47:43 40° SSE 02:53:43 10° E visible
04 Jun - 04:35:01 10° WSW 04:41:11 53° NNW 04:47:42 10° NE visible
04 Jun - 06:31:18 10° WNW 06:35:20 16° NNW 06:39:19 10° NNE daylight
04 Jun - 12:19:21 10° N 12:22:46 13° NNE 12:26:27 10° NE daylight
04 Jun - 14:10:23 10° NW 14:17:32 39° NNE 14:24:38 10° E daylight
04 Jun - 16:03:46 10° WNW 16:11:32 69° SSW 16:18:55 10° SE daylight
04 Jun - 18:00:03 10° WSW 18:05:36 21° SSW 18:10:44 10° SSE daylight
05 Jun - 01:41:35 10° SSW 01:46:40 26° SSE 01:51:52 10° E visible
05 Jun - 03:33:54 10° WSW 03:40:11 81° NNW 03:46:44 10° ENE visible
05 Jun - 05:28:58 10° WNW 05:33:57 23° NNW 05:39:03 10° NNE visible
05 Jun - 13:09:44 10° NNW 13:16:05 27° NNE 13:22:33 10° E daylight
05 Jun - 15:02:23 10° WNW 15:10:15 83° NNE 15:17:53 10° ESE daylight
05 Jun - 16:57:30 10° W 17:04:13 31° SSW 17:10:32 10° SSE daylight
06 Jun - 00:41:32 10° SSW 00:45:29 17° SSE 00:49:35 10° ESE night (unlit)
06 Jun - 02:33:04 10° SW 02:39:14 65° SSE 02:45:33 10° ENE visible
06 Jun - 04:27:07 10° W 04:32:45 33° NNW 04:38:34 10° NE visible
06 Jun - 06:26:17 10° NNW 06:27:14 10° NNW 06:27:57 10° N daylight
06 Jun - 12:09:24 10° NNW 12:14:32 19° NNE 12:19:56 10° ENE daylight
06 Jun - 14:01:16 10° NW 14:08:56 58° NNE 14:16:32 10° ESE daylight
06 Jun - 15:55:26 10° W 16:02:53 46° SSW 16:10:01 10° SE daylight
06 Jun - 17:53:14 10° SW 17:57:18 15° SSW 18:01:01 10° S daylight
06 Jun - 23:42:08 10° S 23:44:10 12° SSE 23:46:23 10° SE night (unlit)
